Tracking 29892 objects as of 21-Nov-2024
HD Live streaming from Space Station
objects crossing your sky now

ATLAS CENTAUR R/B

Track ATLAS CENTAUR R/B now!
10-day predictions
ATLAS CENTAUR R/B is classified as:


NORAD ID: 38770
Int'l Code: 2012-048N
Perigee: 421.2 km
Apogee: 567.1 km
Inclination: 64.6 °
Period: 94.3 minutes
Semi major axis: 6865 km
RCS: Unknown
Launch date: September 13, 2012
Source: United States (US)
Launch site: AIR FORCE WESTERN TEST RANGE (AFWTR)

Note: This is a ROCKET BODY
Your satellite tracking list
Your tracking list is empty




NASA's NSSDC Master Catalog

Two Line Element Set (TLE):
1 38770U 12048N   24325.94056205  .00025319  00000-0  82906-3 0  9995
2 38770  64.6484  41.8414 0106235 329.4784  30.0187 15.26261361 30000
Source of the keplerian elements: McCants